#timestamp,LO_Frequency,Hit 
1504022415.4,286046999.0,N
1504022435.2,286046996.9,N
1504022455.0,286046999.2,N
1504022455.9,286046999.2,N
1504022475.8,286046999.1,N
1504022495.6,286046999.0,N
1504022515.4,286046996.7,N
1504022535.3,286046997.2,N
1504022555.1,286046995.4,N
1504022556.0,286046995.4,N
1504022575.8,286046997.0,N
1504022595.7,286046996.2,N
1504022615.5,286046993.6,N
1504022635.3,286046995.0,N
1504022655.1,286047001.1,N
1504022675.9,286047002.7,N
1504022695.7,286046999.8,N
1504022715.5,286046996.9,N
1504022735.4,286046996.5,N
1504022755.2,286046998.6,N
1504022775.0,286046996.6,N
1504022775.9,286046996.6,N
1504022795.8,286046995.4,N
1504022815.6,286046996.3,N
1504022835.4,286046996.9,N
1504022855.3,286046994.9,N
1504022875.1,286046999.2,N
1504022876.0,286046999.2,N
1504022895.8,286046998.0,N
1504022915.7,286046994.9,N
1504022935.5,286046993.5,P
1504022955.3,286046997.4,N
1504022975.2,286046997.5,N
1504022995.9,286046998.9,N
1504023015.7,286047001.1,N
1504023035.5,286047001.0,N
1504023055.4,286046998.5,N
1504023075.2,286047000.8,N
1504023095.0,286047000.2,N
1504023095.9,286047000.2,N
1504023115.8,286047002.8,N
1504023135.6,286047000.5,N
1504023155.4,286047000.2,N
1504023175.3,286046998.3,N
1504023195.1,286047000.1,N
1504023196.0,286047000.1,N
1504023215.8,286047000.3,N
1504023235.7,286047002.6,N
1504023255.5,286047002.5,N
1504023275.3,286047000.8,N
1504023295.2,286047002.8,N
1504023315.9,286046999.8,N
1504023335.7,286046999.7,N
1504023355.5,286046998.5,N
1504023375.7,286046998.7,N
1504023395.5,286047001.1,N
1504023415.3,286046998.2,N
1504023435.1,286046998.3,N
1504023455.9,286046997.7,N
1504023475.7,286046997.9,N
1504023495.5,286047001.1,N
1504023515.4,286047000.6,N
1504023535.2,286047000.8,N
1504023555.0,286047002.6,N
1504023555.9,286047002.6,N
1504023575.8,286047000.7,N
1504023595.6,286047002.7,N
1504023615.4,286047001.2,N
1504023635.3,286047000.1,N
1504023655.1,286047001.6,N
1504023656.0,286047001.6,N
1504023675.8,286046999.8,N
1504023695.7,286047002.8,N
1504023715.5,286046997.0,N
1504023735.3,286046999.6,N
1504023755.2,286046999.6,N
1504023775.9,286046998.1,N
1504023795.7,286046999.4,N
1504023815.5,286047002.1,N
1504023835.4,286046999.9,N
1504023855.2,286047002.6,N
1504023875.0,286046998.6,N
1504023875.9,286046998.6,N
1504023895.8,286047002.5,N
1504023915.6,286047001.5,N
1504023935.4,286047001.5,N
1504023955.3,286047000.6,N
1504023975.1,286046997.2,N
1504023995.8,286046996.5,N
1504024015.7,286046996.7,N
1504024035.5,286046996.8,N
1504024055.3,286046999.0,N
1504024075.2,286046997.7,N
1504024095.9,286046997.8,N
1504024115.7,286046998.3,N
1504024135.6,286046996.7,N
1504024155.4,286046999.4,N
1504024175.2,286047000.1,N
1504024195.0,286047002.7,N
1504024195.9,286047002.7,N
1504024215.8,286046998.1,N
1504024235.6,286046998.3,N
1504024255.4,286046998.6,N
1504024275.3,286046998.1,N
1504024295.1,286047002.6,N
1504024315.8,286047001.5,N
1504024335.7,286046999.9,N
1504024355.5,286046999.7,N
1504024375.3,286046999.0,N
1504024395.2,286047001.0,N
1504024415.9,286047001.9,N
1504024435.7,286047003.9,N
1504024455.6,286047002.6,N
1504024475.4,286047002.4,N
1504024495.2,286047002.5,N
1504024515.0,286047002.4,N
1504024515.9,286047002.4,N
1504024535.8,286047002.1,N
1504024555.6,286047004.4,N
1504024575.4,286047002.4,N
1504024595.3,286047002.4,N
1504024615.1,286046999.3,N
1504024635.8,286047000.3,N
1504024655.7,286047000.0,N
1504024675.5,286047000.3,N
1504024695.3,286046996.9,N
1504024715.2,286047000.0,N
1504024735.9,286047004.3,N
1504024755.7,286047001.3,N
1504024775.6,286047003.6,N
1504024795.4,286047002.9,N
1504024815.2,286047001.8,N
1504024835.0,286047001.6,N
1504024836.0,286047001.6,N
1504024855.8,286046998.7,N
1504024875.6,286046999.7,N
1504024895.4,286046999.7,N
1504024915.3,286047002.1,N
1504024935.1,286047004.4,N
1504024955.8,286046998.9,N
1504024975.7,286046999.5,N
1504024995.5,286046996.9,N
1504025015.3,286047002.6,N
1504025035.2,286047003.7,N
1504025055.9,286047002.0,N
1504025075.7,286047005.8,N
1504025095.6,286047005.5,N
1504025115.4,286047005.3,N
1504025135.2,286047005.6,N
1504025155.1,286047005.3,N
1504025156.0,286047005.3,N
1504025175.8,286047005.1,N
1504025195.6,286047004.1,N
1504025215.5,286047005.3,N
1504025235.3,286047005.9,N
1504025255.1,286047002.9,N
1504025275.8,286047005.6,N
1504025295.7,286047002.4,N
1504025315.5,286047001.3,N
1504025335.3,286047001.0,N
1504025355.2,286047002.3,N
1504025375.9,286047002.6,N
1504025395.7,286046998.2,N
1504025415.6,286047002.5,N
1504025435.4,286047001.1,N
1504025455.2,286047000.4,N
1504025475.1,286047000.5,N
1504025476.0,286047000.5,N
1504025495.8,286046999.4,N
1504025515.6,286046998.7,N
1504025535.5,286047002.4,N
1504025555.3,286047000.3,N
1504025575.1,286047001.6,N
1504025595.8,286047002.1,N
1504025615.7,286047003.1,N
1504025635.5,286047003.6,N
1504025655.3,286047001.9,N
1504025675.2,286047000.0,N
1504025695.0,286046999.4,N
1504025695.9,286046999.4,N
1504025715.7,286047001.5,N
1504025735.6,286047002.6,N
1504025755.4,286047000.1,N
1504025775.2,286046998.8,N
1504025795.1,286046999.9,N
1504025796.0,286046999.9,N
1504025815.8,286046998.3,N
1504025835.6,286047002.0,N
1504025855.5,286046999.8,N
1504025875.3,286046999.5,N
1504025895.1,286046998.1,N
1504025915.9,286047002.5,N
1504025935.7,286046998.5,N
1504025955.5,286046997.3,N
1504025975.3,286047000.1,N
1504025995.2,286047001.9,N
